Quincy, IL

12:58 AM CST on January 21, 2018 (GMT -0600)
Quincy Regional-Baldwin

Weather History for KUIN - February, 2011

Change the Weather History Date:

Wednesday, February 2, 2011

  Actual Average Record
Temperature  
Mean Temperature 8 °F 28 °F  
Max Temperature 17 °F 36 °F 68 °F (1920)
Min Temperature 0 °F 19 °F -20 °F (1905)
Degree Days  
Heating Degree Days 56 37  
Month to date heating degree days 75  
Since 1 July heating degree days 3461  
Cooling Degree Days 0 0  
Month to date cooling degree days 0  
Year to date cooling degree days 0  
Moisture  
Dew Point 7 °F    
Average Humidity 78    
Maximum Humidity 93    
Minimum Humidity 67    
Precipitation  
Precipitation 0.00 in 0.05 in 0.59 in (1983)
Month to date precipitation 0.10  
Year to date precipitation 1.62  
Sea Level Pressure  
Sea Level Pressure 30.29 in    
Wind  
Wind Speed 23 mph (NW)    
Max Wind Speed 31 mph    
Max Gust Speed 40 mph    
Visibility 5 miles    
Events Fog    
T = Trace of Precipitation, MM = Missing Value Source: NWS Daily Summary

Daily Weather History Graph

Daily Weather History Graph

Search for Another Location

Airport or City:

Trip Planner

Search our weather history database for the weather conditions in past years. The results will help you decide how hot, cold, wet, or windy it might be!

Date:

Astronomy

Feb. 02, 2011 Rise Set
Actual Time 7:12 AM CST 5:25 PM CST
Civil Twilight 6:43 AM CST 5:53 PM CST
Nautical Twilight 6:11 AM CST 6:25 PM CST
Astronomical Twilight 5:39 AM CST 6:57 PM CST
Moon 6:44 AM CST (2/2) 5:20 PM CST (2/2)
Length of Visible Light 11h 09m
Length of Day
10h 12m
Waning Crescent, 0% of the Moon is Illuminated
Feb 2
Waning Crescent
Feb 2
New
Feb 11
First Quarter
Feb 18
Full
Feb 24
Last Quarter

Hourly Weather History & Observations

Time (CST) Temp. Windchill Dew Point Humidity Pressure Visibility Wind Dir Wind Speed Gust Speed Precip Events Conditions
12:14 AM 17.6 °F -2.2 °F 15.8 °F 93% 29.89 in 0.5 mi NNW 31.1 mph 40.3 mph N/A Fog Light Freezing Fog
12:41 AM 17.6 °F -0.3 °F 15.8 °F 93% 29.93 in 1.0 mi NW 24.2 mph 35.7 mph N/A   Mist
12:49 AM 17.6 °F -1.0 °F 14.0 °F 86% 29.93 in 0.8 mi NW 26.5 mph 32.2 mph N/A   Mist
12:54 AM 17.1 °F -1.4 °F 14.0 °F 88% 29.97 in 0.8 mi NW 25.3 mph 32.2 mph N/A   Mist
1:04 AM 17.6 °F 0.5 °F 14.0 °F 86% 29.94 in 1.0 mi NW 21.9 mph - N/A   Mist
1:54 AM 17.1 °F -2.0 °F 12.9 °F 84% 30.02 in 0.8 mi NW 27.6 mph 34.5 mph N/A   Mist
1:58 AM 17.6 °F -1.3 °F 12.2 °F 79% 29.99 in 1.0 mi NW 27.6 mph 34.5 mph N/A   Overcast
2:27 AM 15.8 °F -3.1 °F 12.2 °F 86% 30.01 in 1.5 mi NW 25.3 mph 33.4 mph N/A   Overcast
2:39 AM 15.8 °F -3.1 °F 12.2 °F 86% 30.02 in 1.2 mi NW 25.3 mph 34.5 mph N/A   Overcast
2:54 AM 15.8 °F -3.4 °F 12.2 °F 86% 30.03 in 1.0 mi NW 26.5 mph 35.7 mph N/A   Overcast
3:34 AM 15.8 °F -3.7 °F 12.2 °F 86% 30.05 in 1.2 mi NW 27.6 mph 34.5 mph N/A   Overcast
3:42 AM 15.8 °F -4.1 °F 10.4 °F 79% 30.06 in 0.8 mi NNW 28.8 mph 35.7 mph N/A   Overcast
3:54 AM 15.1 °F -4.0 °F 10.9 °F 84% 30.11 in 1.2 mi NNW 25.3 mph 34.5 mph N/A   Overcast
4:38 AM 15.8 °F -2.3 °F 10.4 °F 79% 30.11 in 1.0 mi NNW 23.0 mph 34.5 mph N/A   Mist
4:54 AM 15.1 °F -3.3 °F 10.0 °F 80% 30.16 in 1.5 mi NNW 23.0 mph 32.2 mph N/A   Haze
5:22 AM 14.0 °F -5.1 °F 10.4 °F 86% 30.14 in 1.8 mi NNW 24.2 mph 33.4 mph N/A   Partly Cloudy
5:30 AM 14.0 °F -5.8 °F 10.4 °F 86% 30.14 in 2.0 mi NNW 26.5 mph 33.4 mph N/A   Clear
5:54 AM 14.0 °F -5.1 °F 9.0 °F 80% 30.20 in 4.0 mi NNW 24.2 mph 32.2 mph N/A   Haze
6:10 AM 14.0 °F -3.0 °F 8.6 °F 79% 30.19 in 2.5 mi NW 18.4 mph 29.9 mph N/A   Haze
6:18 AM 14.0 °F -3.9 °F 8.6 °F 79% 30.20 in 5.0 mi NW 20.7 mph 29.9 mph N/A   Haze
6:54 AM 14.0 °F -3.9 °F 8.1 °F 77% 30.27 in 5.0 mi NW 20.7 mph 32.2 mph N/A   Haze
7:54 AM 12.9 °F -4.4 °F 7.0 °F 77% 30.30 in 5.0 mi NW 18.4 mph - N/A   Haze
8:54 AM 12.9 °F -4.9 °F 7.0 °F 77% 30.33 in 2.5 mi NW 19.6 mph - N/A   Haze
9:04 AM 12.2 °F -4.3 °F 6.8 °F 79% 30.31 in 10.0 mi NW 16.1 mph 26.5 mph N/A   Clear
9:49 AM 14.0 °F -2.0 °F 8.6 °F 79% 30.35 in 2.5 mi NW 16.1 mph - N/A   Haze
9:54 AM 14.0 °F -2.5 °F 8.1 °F 77% 30.39 in 8.0 mi NW 17.3 mph 24.2 mph N/A   Partly Cloudy
10:09 AM 15.8 °F -0.6 °F 8.6 °F 73% 30.36 in 10.0 mi NW 18.4 mph - N/A   Mostly Cloudy
10:54 AM 15.1 °F -2.0 °F 8.1 °F 74% 30.44 in 5.0 mi NW 19.6 mph - 0.00 in   Overcast
11:50 AM 15.8 °F -0.2 °F 8.6 °F 73% 30.43 in 10.0 mi NW 17.3 mph - 0.00 in   Mostly Cloudy
11:54 AM 15.1 °F -1.6 °F 8.1 °F 74% 30.47 in 10.0 mi WNW 18.4 mph - 0.00 in   Mostly Cloudy
12:02 PM 15.8 °F -1.5 °F 6.8 °F 68% 30.43 in 10.0 mi NW 20.7 mph - N/A   Mostly Cloudy
12:09 PM 15.8 °F -2.3 °F 8.6 °F 73% 30.43 in 10.0 mi NW 23.0 mph - N/A   Scattered Clouds
12:54 PM 15.1 °F -0.6 °F 8.1 °F 74% 30.48 in 10.0 mi NW 16.1 mph - N/A   Scattered Clouds
1:54 PM 15.1 °F -0.6 °F 7.0 °F 70% 30.49 in 10.0 mi WNW 16.1 mph - N/A   Mostly Cloudy
2:54 PM 15.1 °F -0.6 °F 6.1 °F 68% 30.51 in 10.0 mi NW 16.1 mph - N/A   Scattered Clouds
3:54 PM 14.0 °F -0.2 °F 5.0 °F 67% 30.54 in 10.0 mi NW 12.7 mph - N/A   Clear
4:54 PM 12.0 °F -0.4 °F 3.0 °F 67% 30.57 in 10.0 mi WNW 9.2 mph - N/A   Clear
5:54 PM 9.0 °F -4.2 °F 1.0 °F 70% 30.60 in 10.0 mi WNW 9.2 mph - N/A   Clear
6:54 PM 7.0 °F -5.7 °F -0.9 °F 70% 30.61 in 10.0 mi NW 8.1 mph - N/A   Clear
7:54 PM 5.0 °F -5.6 °F -2.0 °F 73% 30.62 in 5.0 mi WNW 5.8 mph - N/A   Haze
8:54 PM 1.9 °F -10.6 °F -5.1 °F 72% 30.63 in 10.0 mi NW 6.9 mph - N/A   Clear
9:54 PM 1.0 °F -14.0 °F -7.1 °F 69% 30.64 in 10.0 mi NW 9.2 mph - N/A   Clear
10:54 PM -0.0 °F -14.2 °F -8.0 °F 69% 30.64 in 10.0 mi NW 8.1 mph - N/A   Clear
11:54 PM -0.0 °F -11.6 °F -8.0 °F 69% 30.63 in 10.0 mi WNW 5.8 mph - N/A   Clear